Location: G�kdere
(37.0328°N, 30.9000°E)
Time: 21:24:53
(UTC+00:00)

Daily predictions for brighter satellites

Satellite Brightness Start Highest point End
(mag) Time Altitude Azimuth Time Altitude Azimuth Time Altitude Azimuth
ARGOS 4.0 16:08:27 10° SE 16:13:03 29° ENE 16:17:41 10° N
Cosmos 2228 Rocket 4.4 16:09:41 10° NNW 16:13:59 47° W 16:18:13 10° SSW
Cosmos 2184 Rocket 4.0 16:08:53 10° S 16:14:59 72° E 16:21:09 10° N
USA 234 3.8 16:09:05 10° ENE 16:15:10 41° SE 16:21:14 10° SSW
COSMO-SKYMED 1 3.0 16:11:02 10° N 16:15:22 70° WNW 16:19:40 10° SSW
Cosmos 2263 Rocket 2.2 16:10:10 10° NNW 16:15:45 81° ENE 16:21:19 10° SSE
Cosmos 968 Rocket 3.9 16:13:23 10° N 16:18:23 43° ENE 16:23:23 10° SE
Cosmos 1486 Rocket 4.5 16:16:50 10° N 16:21:49 40° ENE 16:26:47 10° SE
Cosmos 1633 Rocket 3.0 16:18:24 10° S 16:22:48 77° E 16:27:14 10° N
Cosmos 1939 Rocket 4.4 16:21:14 10° S 16:24:51 40° W 16:28:30 10° NNW
H-2A R/B 2.3 16:19:49 10° SSE 16:25:06 56° ENE 16:30:26 10° N
SeaSat 1 2.8 16:21:02 10° NE 16:25:46 45° ESE 16:30:27 10° S
Cosmos 1437 3.3 16:23:06 10° NNW 16:25:56 54° W 16:28:45 10° S
Okean 1 3.8 16:23:23 10° N 16:27:09 37° E 16:30:54 10° SSE
Cosmos 1515 4.2 16:24:13 10° N 16:27:48 38° E 16:31:21 10° SSE
IRS-1C Rocket 4.1 16:23:20 10° SSE 16:28:33 73° ENE 16:33:49 10° N
Cosmos 1707 Rocket 3.6 16:24:50 10° N 16:29:13 86° W 16:33:33 10° S
CZ-2C R/B 3.1 16:24:24 10° NNE 16:29:26 37° E 16:34:19 10° SSE
Cosmos 2237 4.3 16:23:59 10° S 16:29:34 59° ESE 16:35:12 10° NNE
CZ-4 R/B 1.3 16:25:59 10° SSE 16:29:45 59° ENE 16:33:35 10° N
Meteor 1-20 Rocket 4.3 16:24:30 10° S 16:29:57 81° W 16:35:27 10° N
SAR-Lupe-4 3.5 16:35:24 10° NNE 16:38:56 60° ESE 16:42:28 10° S
CSL-04 Rocket 4.0 16:40:03 10° SE 16:45:18 46° ENE 16:50:33 10° N
ATLAS CENTAUR R/B 0.9 16:41:55 10° SSW 16:45:34 89° ESE 16:49:12 10° NNE
CSL-04 Debris 4.4 16:41:21 10° SE 16:46:33 50° ENE 16:51:49 10° N
Okean-O 2.5 16:43:33 10° SSE 16:47:59 80° ENE 16:52:25 10° N
Cosmos 2341 Rocket 4.3 16:44:00 10° SSE 16:49:57 45° E 16:55:53 10° NNE
Cosmos 1844 Rocket 3.4 16:45:47 10° N 16:50:43 31° ENE 16:54:25 16° ESE
Cosmos 44 Rocket 3.5 16:46:09 10° NNW 16:51:19 58° ENE 16:56:23 10° SE
Meteor 1-5 Rocket 4.4 16:48:13 10° SSE 16:53:14 44° E 16:58:23 10° NNE
Cosmos 2084 Rocket 4.0 16:51:40 10° NNW 16:55:48 40° NE 16:58:23 21° ESE
ERS-2 2.4 16:52:19 10° N 16:55:57 69° WNW 16:59:34 10° SSW
Cosmos 1666 3.3 16:53:04 10° SSE 16:56:21 31° E 16:59:39 10° NNE
SAR-Lupe-1 4.4 16:54:45 10° N 16:58:20 69° WNW 17:01:52 10° SSW
Cosmos 1503 Rocket 4.2 16:53:44 10° N 16:58:45 48° ENE 17:03:44 10° SE
IRIS 3.9 16:55:45 10° WNW 16:58:47 58° NNE 16:59:30 38° ENE
Cosmos 2360 Rocket 2.2 16:54:14 10° SSW 16:59:52 89° ESE 17:05:33 10° NNE
HJ-1C 3.2 16:56:53 10° SSE 17:00:12 81° ENE 17:03:31 10° N
Cosmos 1470 Rocket 3.9 16:57:30 10° SSW 17:01:57 69° W 17:06:24 10° N
Cosmos 1844 4.4 16:57:09 10° N 17:02:19 33° ENE 17:05:00 22° ESE
Ariane Rocket 4.2 17:01:53 20° ENE 17:02:22 21° ENE 17:06:05 10° NNE
DELTA 2 R/B (1) 4.1 17:02:04 10° SW 17:07:12 40° SSE 17:09:40 26° E
Cosmos 2218 Rocket 4.4 17:02:46 10° SSE 17:08:39 41° E 17:14:34 10° NNE
Meteor 1-19 Rocket 4.5 17:03:47 10° NNW 17:09:42 77° W 17:15:23 10° S
Cosmos 2333 Rocket 2.5 17:04:27 10° S 17:09:46 44° ESE 17:15:09 10° NE
Meteor 2-4 Rocket 3.8 17:08:45 10° N 17:14:36 67° E 17:20:30 10° SSE
Cosmos 1500 3.8 17:11:22 10° SSW 17:15:02 57° W 17:18:43 10° N
SL-08 RB Rocket 3.6 17:11:32 10° SSE 17:16:01 83° ENE 17:20:34 10° N
Cosmos 1703 Rocket 3.5 17:15:19 10° N 17:19:38 55° E 17:22:11 23° SSE
Cosmos 1933 Rocket 4.1 17:18:36 10° SSW 17:22:53 60° W 17:27:13 10° N
SME Rocket 4.0 17:16:02 10° NNE 17:23:02 52° E 17:27:44 10° S
BREEZE-M DEB (TANK) 3.6 17:24:35 10° WSW 17:29:30 32° NW 17:30:49 22° N
Cosmos 2322 Rocket 4.2 17:25:19 10° WSW 17:30:05 28° WNW 17:34:54 10° N
Cosmos 1959 Rocket 4.4 17:25:03 10° S 17:31:00 60° E 17:37:00 10° NNE
Hubble Space Telescope 3.2 17:34:06 10° S 17:34:47 12° S 17:34:47 12° S
Aureole 2 Rocket 3.7 17:33:59 10° NW 17:35:38 27° WNW 17:35:38 27° WNW
Cosmos 2242 Rocket 3.6 17:32:52 10° N 17:37:21 78° W 17:41:41 11° S
Lacrosse 4 Rocket 1.3 17:33:19 10° SSW 17:37:37 70° ESE 17:38:01 65° ENE
COSMOS 2428 2.7 17:34:15 10° S 17:39:46 58° ESE 17:42:29 30° NE
Cosmos 192 4.2 17:35:14 10° SSW 17:40:07 89° ESE 17:45:04 10° NNE
Helios 1A Rocket 4.3 17:36:36 10° SSW 17:40:23 37° W 17:44:10 10° NNW
MOS 1 4.4 17:42:50 49° E 17:43:31 52° ENE 17:49:00 10° N
CZ-3 Stage 3 3.9 17:41:54 10° WSW 17:44:01 18° SW 17:44:01 18° SW
SJ-6B 3.5 17:46:54 45° N 17:46:54 45° N 17:49:50 10° N
Meteor 1-11 Rocket 3.6 17:40:39 10° S 17:46:23 77° E 17:52:02 10° NNE
Cosmos 2219 Rocket 2.0 17:41:29 10° SSW 17:47:03 81° ESE 17:52:41 10° NNE
GP-B 4.3 17:43:57 10° SSW 17:48:08 42° W 17:52:22 10° NNW
MetOp-A 4.0 17:45:36 24° SSE 17:48:58 89° W 17:54:20 10° NNW
ASTEX 1 3.2 17:45:51 10° N 17:50:36 73° ENE 17:50:36 73° ENE
USA 238 DEB 4.5 17:49:45 10° S 17:53:17 30° SSE 17:53:17 30° SSE
USA 234 3.9 17:52:33 13° NE 17:58:13 53° NW 18:04:32 10° WSW
IRS-1A Rocket 4.1 18:03:53 75° SE 18:04:20 83° ENE 18:09:56 10° NNW
Meteor 1-13 Rocket 4.2 17:58:23 10° N 18:04:21 87° W 18:05:58 51° S
Cosmos 1066 Rocket 4.4 17:58:45 10° N 18:03:41 60° NE 18:03:41 60° NE
Cosmos 2322 4.4 18:01:20 10° SW 18:06:55 53° WNW 18:12:31 10° NNE
Okean 1-7 4.2 18:02:58 10° NNW 18:07:04 41° W 18:08:47 27° SW
CZ-3A R/B 4.2 17:58:56 10° WSW 18:09:00 26° SSW 18:09:40 25° S
Cosmos 1844 Rocket 4.2 18:29:39 10° NW 18:34:31 32° WSW 18:36:09 27° SW
Ariane Rocket 4.3 18:42:04 38° WNW 18:42:04 38° WNW 18:45:50 10° NNW
Cosmos 2278 Rocket 4.2 18:46:52 10° NNW 18:48:35 20° N 18:48:35 20° N
Cosmos 2333 Rocket 4.2 18:49:36 10° WSW 18:54:12 25° WNW 18:58:51 10° N
